Location: *
(48.8780°N, 19.2358°E)
Time: 00:10:29
(UTC+00:00)

Cosmos 1937 Rocket - Pass Details

Date: 18 October 2019
Orbit: 747 x 780 km, 74.0° (Epoch: 19 November)

Event Time Altitude Azimuth Distance (km) Brightness Sun altitude
Rises 18:04:23 0° 340° (NNW) 3,209 7.2 -23.0°
Reaches altitude 10° 18:06:51 10° 346° (NNW) 2,278 6.3 -23.4°
Enters shadow 18:11:10 44° 37° (NE) 1,027 3.9 -24.1°
